Weather History for Marion, VA

Change the Weather History Date:

Saturday, September 13, 2014

  Actual Average (KGEV) Record (KGEV)
Temperature  
Mean Temperature 61 °F -  
Max Temperature 69 °F 74 °F 86 °F (1998)
Min Temperature 54 °F 51 °F 35 °F (1967)
Degree Days  
Heating Degree Days 4    
Growing Degree Days 11 (Base 50)    
Moisture  
Dew Point 60 °F    
Average Humidity 86    
Maximum Humidity 96    
Minimum Humidity 76    
Precipitation  
Precipitation 0.52 in - - ()
Sea Level Pressure  
Sea Level Pressure 30.23 in    
Wind  
Wind Speed 5 mph (North)    
Max Wind Speed 10 mph    
Max Gust Speed 17 mph    
Visibility 9 miles    
Events Rain    
Averages and records for this station are not official NWS values.
T = Trace of Precipitation, MM = Missing Value Source: NWS Daily Summary

Daily Weather History Graph

Daily Weather History Graph

Search for Another Location

Airport:

Trip Planner

Search our weather history database for the weather conditions in past years. The results will help you decide how hot, cold, wet, or windy it might be!

Date:

Astronomy

Sep. 13, 2014 Rise Set
Actual Time 7:05 AM EDT 7:35 PM EDT
Civil Twilight 6:39 AM EDT 8:02 PM EDT
Nautical Twilight 6:09 AM EDT 8:32 PM EDT
Astronomical Twilight 5:37 AM EDT 9:03 PM EDT
Moon 10:47 PM EDT (9/13) 12:03 PM EDT (9/13)
Length of Visible Light 13h 22m
Length of Day
12h 30m
Waning Gibbous, 74% of the Moon is Illuminated
Sep 13
Waning Gibbous
Sep 15
Last Quarter
Sep 24
New
Oct 1
First Quarter
Oct 8
Full

Hourly Weather History & Observations

Time (EDT) Temp. Dew Point Humidity Pressure Visibility Wind Dir Wind Speed Gust Speed Precip Events Conditions
12:15 AM 68.0 °F 65.7 °F 92% 30.17 in 10.0 mi ENE 8.1 mph - N/A   Overcast
12:35 AM 68.0 °F 65.5 °F 92% 30.17 in 10.0 mi ENE 9.2 mph - N/A   Overcast
12:55 AM 67.6 °F 65.5 °F 93% 30.17 in 10.0 mi ENE 5.8 mph - N/A   Overcast
1:15 AM 67.6 °F 65.3 °F 92% 30.17 in 10.0 mi ENE 5.8 mph - N/A   Overcast
1:35 AM 67.5 °F 65.3 °F 93% 30.17 in 10.0 mi ENE 6.9 mph - N/A   Overcast
1:55 AM 67.5 °F 65.3 °F 93% 30.17 in 10.0 mi NE 6.9 mph - N/A   Overcast
2:15 AM 67.3 °F 65.3 °F 93% 30.17 in 7.0 mi ENE 3.5 mph - N/A   Overcast
2:35 AM 67.1 °F 65.3 °F 94% 30.16 in 7.0 mi ENE 4.6 mph - N/A Rain Light Rain
2:55 AM 67.1 °F 64.8 °F 92% 30.16 in 10.0 mi ENE 4.6 mph - N/A   Light Drizzle
3:15 AM 66.6 °F 64.8 °F 94% 30.16 in 5.0 mi East 6.9 mph - 0.05 in Rain Heavy Rain
3:35 AM 66.6 °F 64.9 °F 95% 30.16 in 5.0 mi ENE 4.6 mph - 0.08 in Rain Light Rain
3:55 AM 66.6 °F 64.8 °F 94% 30.15 in 10.0 mi East 3.5 mph - 0.10 in Rain Light Rain
4:15 AM 66.4 °F 64.8 °F 95% 30.14 in 7.0 mi ENE 4.6 mph - N/A   Drizzle
4:35 AM 66.6 °F 64.9 °F 95% 30.15 in 7.0 mi East 3.5 mph - 0.01 in   Drizzle
4:55 AM 66.6 °F 64.8 °F 94% 30.15 in 10.0 mi East 4.6 mph - 0.01 in   Overcast
5:15 AM 66.4 °F 64.4 °F 93% 30.15 in 10.0 mi East 4.6 mph - N/A   Overcast
5:35 AM 66.2 °F 64.4 °F 94% 30.15 in 10.0 mi East 5.8 mph - N/A   Overcast
5:55 AM 66.2 °F 64.6 °F 94% 30.16 in 10.0 mi ENE 4.6 mph - N/A   Overcast
6:15 AM 66.2 °F 64.6 °F 94% 30.15 in 10.0 mi ENE 4.6 mph - N/A   Overcast
6:35 AM 66.2 °F 64.4 °F 94% 30.16 in 10.0 mi ENE 5.8 mph - N/A   Overcast
6:55 AM 66.2 °F 64.4 °F 94% 30.16 in 7.0 mi East 3.5 mph - 0.01 in Rain Rain
7:15 AM 66.2 °F 64.4 °F 94% 30.17 in 10.0 mi ENE 4.6 mph - 0.04 in Rain Light Rain
7:35 AM 66.2 °F 64.4 °F 94% 30.18 in 2.0 mi NE 6.9 mph - 0.18 in Rain Heavy Rain
7:55 AM 65.8 °F 64.4 °F 95% 30.18 in 1.8 mi NNE 3.5 mph - 0.35 in Rain Rain
8:15 AM 66.0 °F 64.4 °F 94% 30.19 in 10.0 mi Calm Calm - 0.02 in Rain Rain
8:35 AM 65.7 °F 64.4 °F 96% 30.19 in 10.0 mi Calm Calm - 0.04 in Rain Light Rain
8:55 AM 65.8 °F 64.4 °F 95% 30.19 in 7.0 mi Calm Calm - 0.05 in   Drizzle
9:15 AM 66.4 °F 64.9 °F 95% 30.20 in 10.0 mi Calm Calm - N/A   Overcast
9:35 AM 67.5 °F 65.3 °F 93% 30.20 in 10.0 mi SSW 3.5 mph - N/A   Overcast
9:55 AM 68.5 °F 64.8 °F 88% 30.20 in 10.0 mi West 10.4 mph - N/A   Overcast
10:15 AM 68.0 °F 63.7 °F 86% 30.21 in 10.0 mi WNW 9.2 mph - N/A   Overcast
10:35 AM 68.4 °F 64.0 °F 86% 30.22 in 10.0 mi NW 6.9 mph - N/A   Overcast
10:55 AM 67.3 °F 63.1 °F 87% 30.22 in 10.0 mi NNW 5.8 mph - N/A   Overcast
11:15 AM 66.7 °F 61.7 °F 84% 30.23 in 10.0 mi NNW 6.9 mph - N/A   Overcast
11:35 AM 66.2 °F 60.8 °F 83% 30.23 in 10.0 mi NNW 4.6 mph - N/A   Overcast
11:55 AM 66.6 °F 60.6 °F 81% 30.24 in 10.0 mi NW 8.1 mph - N/A   Overcast
12:15 PM 65.5 °F 59.2 °F 80% 30.24 in 10.0 mi NNW 9.2 mph - N/A   Overcast
12:35 PM 64.9 °F 59.2 °F 82% 30.25 in 10.0 mi NNW 8.1 mph - N/A   Overcast
12:55 PM 64.8 °F 58.6 °F 81% 30.25 in 10.0 mi NW 5.8 mph - N/A   Overcast
1:15 PM 65.3 °F 58.5 °F 78% 30.25 in 10.0 mi NW 8.1 mph 17.3 mph N/A   Overcast
1:35 PM 65.7 °F 59.2 °F 80% 30.25 in 10.0 mi NW 9.2 mph - N/A   Overcast
1:55 PM 65.3 °F 58.3 °F 78% 30.25 in 10.0 mi WNW 9.2 mph - N/A   Overcast
2:15 PM 64.6 °F 57.9 °F 79% 30.25 in 10.0 mi West 5.8 mph - N/A   Overcast
2:35 PM 65.3 °F 58.3 °F 78% 30.24 in 10.0 mi WNW 6.9 mph - N/A   Overcast
2:55 PM 65.3 °F 58.6 °F 79% 30.24 in 10.0 mi WNW 5.8 mph - N/A   Overcast
3:15 PM 65.7 °F 58.1 °F 77% 30.24 in 10.0 mi West 6.9 mph - N/A   Overcast
3:35 PM 65.5 °F 58.3 °F 77% 30.24 in 10.0 mi West 6.9 mph - N/A   Overcast
3:55 PM 65.3 °F 57.7 °F 76% 30.24 in 10.0 mi WNW 8.1 mph - N/A   Overcast
4:15 PM 64.4 °F 57.2 °F 77% 30.24 in 10.0 mi West 5.8 mph - N/A   Mostly Cloudy
4:35 PM 63.5 °F 57.0 °F 79% 30.24 in 10.0 mi WNW 9.2 mph 16.1 mph N/A   Mostly Cloudy
4:55 PM 63.5 °F 56.7 °F 78% 30.25 in 10.0 mi WNW 8.1 mph - N/A   Overcast
5:15 PM 62.6 °F 55.8 °F 78% 30.25 in 10.0 mi WNW 4.6 mph - N/A   Overcast
5:35 PM 62.2 °F 55.2 °F 78% 30.26 in 10.0 mi NW 5.8 mph - N/A   Overcast
5:55 PM 61.2 °F 55.4 °F 81% 30.27 in 10.0 mi WNW 4.6 mph - N/A   Overcast
6:15 PM 60.6 °F 55.0 °F 82% 30.28 in 10.0 mi NW 5.8 mph - N/A   Overcast
6:35 PM 60.4 °F 54.0 °F 79% 30.28 in 10.0 mi NW 5.8 mph - N/A   Overcast
6:55 PM 60.1 °F 53.6 °F 79% 30.28 in 10.0 mi NW 4.6 mph - N/A   Overcast
7:15 PM 59.9 °F 53.8 °F 80% 30.29 in 10.0 mi NW 3.5 mph - N/A   Overcast
7:35 PM 59.9 °F 53.6 °F 80% 30.30 in 10.0 mi Calm Calm - N/A   Overcast
7:55 PM 59.7 °F 53.6 °F 80% 30.30 in 10.0 mi NW 3.5 mph - N/A   Overcast
8:15 PM 59.5 °F 53.2 °F 80% 30.30 in 10.0 mi Calm Calm - N/A   Overcast
8:35 PM 59.5 °F 53.2 °F 80% 30.31 in 10.0 mi North 3.5 mph - N/A   Overcast
8:55 PM 59.5 °F 52.2 °F 77% 30.32 in 10.0 mi North 3.5 mph - N/A   Overcast
9:15 PM 59.4 °F 52.3 °F 78% 30.32 in 10.0 mi NNE 3.5 mph - N/A   Overcast
9:35 PM 59.2 °F 52.2 °F 78% 30.33 in 10.0 mi North 3.5 mph - N/A   Overcast
9:55 PM 59.0 °F 52.7 °F 80% 30.34 in 10.0 mi Calm Calm - N/A   Overcast
10:15 PM 58.1 °F 52.3 °F 81% 30.33 in 10.0 mi Calm Calm - N/A   Scattered Clouds
10:35 PM 56.7 °F 52.7 °F 87% 30.32 in 10.0 mi Calm Calm - N/A   Clear
10:55 PM 56.1 °F 52.9 °F 89% 30.32 in 10.0 mi Calm Calm - N/A   Clear
11:15 PM 54.9 °F 52.7 °F 92% 30.32 in 10.0 mi Calm Calm - N/A   Clear
11:35 PM 54.0 °F 52.5 °F 95% 30.33 in 5.0 mi Calm Calm - N/A   Clear
11:55 PM 54.1 °F 51.8 °F 92% 30.32 in 10.0 mi Calm Calm - N/A   Clear